Location: Appingedam
(53.3222°N, 6.8488°E)
Time: 15:31:58
(UTC+00:00)

RESURS DK-1 - Pass Details

Date: 15 May 2026
Orbit: 522 x 531 km, 69.9° (Epoch: 9 June)

Event Time Altitude Azimuth Distance (km) Brightness Sun altitude
Rises 22:13:03 0° 325° (NW) 2,683 7.3 -15.8°
Reaches altitude 10° 22:15:14 10° 325° (NW) 1,790 6.1 -15.9°
Maximum altitude 22:19:13 81° 239° (WSW) 546 2.2 -16.1°
Enters shadow 22:20:54 33° 155° (SSE) 902 2.8 -16.2°
